Namest Nad Oslav, Czech Republic

8:57 PM CEST on October 19, 2017 (GMT +0200)
Namest

Weather History for LKNA - May, 2013

Change the Weather History Date:

Friday, May 10, 2013

  Actual Average Record
Temperature  
Mean Temperature 60 °F -  
Max Temperature 68 °F - - ()
Min Temperature 51 °F - - ()
Degree Days  
Heating Degree Days 6    
Growing Degree Days 10 (Base 50)    
Moisture  
Dew Point 51 °F    
Average Humidity 76    
Maximum Humidity 100    
Minimum Humidity 52    
Precipitation  
Precipitation 0.00 in - - ()
Sea Level Pressure  
Sea Level Pressure 29.91 in    
Wind  
Wind Speed 9 mph ()    
Max Wind Speed 17 mph    
Max Gust Speed -    
Visibility 6.1 miles    
Events Rain    
T = Trace of Precipitation, MM = Missing Value Source: Averaged Metar Reports

Daily Weather History Graph

Daily Weather History Graph

Search for Another Location

Airport or City:

Trip Planner

Search our weather history database for the weather conditions in past years. The results will help you decide how hot, cold, wet, or windy it might be!

Date:

Astronomy

May. 10, 2013 Rise Set
Actual Time 5:19 AM CEST 8:24 PM CEST
Civil Twilight 4:42 AM CEST 9:02 PM CEST
Nautical Twilight 3:53 AM CEST 9:51 PM CEST
Astronomical Twilight 2:53 AM CEST 10:53 PM CEST
Moon 5:32 AM CEST (5/10) 9:00 PM CEST (5/10)
Length of Visible Light 16h 20m
Length of Day
15h 05m
New Moon, 0% of the Moon is Illuminated
May 10
New Moon
May 18
First Quarter
May 25
Full
May 31
Last Quarter
Jun 8
New

Hourly Weather History & Observations

Time (CEST) Temp. Dew Point Humidity Pressure Visibility Wind Dir Wind Speed Gust Speed Precip Events Conditions
12:00 AM 59.0 °F 50.0 °F 72% 29.95 in - SE 8.1 mph - N/A   Clear
1:00 AM 59.0 °F 51.8 °F 77% 29.95 in - ESE 9.2 mph - N/A   Clear
3:00 AM 55.4 °F 50.0 °F 82% 29.92 in - SE 6.9 mph - N/A   Clear
4:00 AM 55.4 °F 50.0 °F 82% 29.92 in - ESE 9.2 mph - N/A   Clear
5:00 AM 55.4 °F 50.0 °F 82% 29.89 in - ESE 9.2 mph - N/A   Clear
6:00 AM 53.6 °F 48.2 °F 82% 29.89 in - ESE 6.9 mph - N/A   Clear
7:00 AM 53.6 °F 48.2 °F 82% 29.89 in - ESE 8.1 mph - N/A   Clear
8:00 AM 57.2 °F 48.2 °F 72% 29.89 in - SE 13.8 mph - N/A   Clear
9:00 AM 59.0 °F 50.0 °F 72% 29.92 in - SE 13.8 mph - N/A   Clear
10:00 AM 62.6 °F 50.0 °F 63% 29.92 in - SSE 13.8 mph - N/A   Clear
11:00 AM 64.4 °F 50.0 °F 59% 29.92 in - SE 12.7 mph - N/A   Clear
12:00 PM 66.2 °F 50.0 °F 56% 29.89 in - SE 13.8 mph - N/A   Clear
1:00 PM 68.0 °F 51.8 °F 56% 29.89 in 6.2 mi SE 17.3 mph - N/A   Mostly Cloudy
2:00 PM 68.0 °F 51.8 °F 56% 29.89 in 6.2 mi SSE 15.0 mph - N/A   Mostly Cloudy
3:00 PM 68.0 °F 50.0 °F 52% 29.89 in 6.2 mi SE 12.7 mph - N/A   Mostly Cloudy
4:00 PM 68.0 °F 50.0 °F 52% 29.86 in 6.2 mi SSE 9.2 mph - N/A   Mostly Cloudy
5:00 PM 57.2 °F 53.6 °F 88% 29.89 in 6.2 mi NW 13.8 mph - N/A Rain Light Rain
6:00 PM 55.4 °F 51.8 °F 88% 29.89 in 6.2 mi NW 11.5 mph - N/A Rain Light Rain
7:00 PM 55.4 °F 51.8 °F 88% 29.92 in 6.2 mi NNW 11.5 mph - N/A Rain Light Rain
8:00 PM 53.6 °F 51.8 °F 94% 29.92 in 6.2 mi NNW 10.4 mph - N/A Rain Light Rain
9:00 PM 53.6 °F 51.8 °F 94% 29.95 in 5.6 mi NW 12.7 mph - N/A Rain Light Rain
10:00 PM 51.8 °F 51.8 °F 100% 29.98 in 6.2 mi NW 5.8 mph - N/A Rain Light Rain
11:00 PM 51.8 °F 51.8 °F 100% 29.98 in 6.2 mi NW 10.4 mph - N/A Rain Light Rain